Weather History for KHYR - March, 2014

Change the Weather History Date:

Friday, March 14, 2014

  Actual Average Record
Temperature  
Mean Temperature 33 °F -  
Max Temperature 45 °F 37 °F 69 °F (2012)
Min Temperature 24 °F 16 °F -1 °F (1949)
Degree Days  
Heating Degree Days 32    
Moisture  
Dew Point 26 °F    
Average Humidity 75    
Maximum Humidity 96    
Minimum Humidity 49    
Precipitation  
Precipitation 0.00 in - - ()
Sea Level Pressure  
Sea Level Pressure 29.59 in    
Wind  
Wind Speed 4 mph (West)    
Max Wind Speed 10 mph    
Max Gust Speed 25 mph    
Visibility 9 miles    
Events Snow    
Averages and records for this station are not official NWS values.
T = Trace of Precipitation, MM = Missing Value Source: NWS Daily Summary

Daily Weather History Graph

Daily Weather History Graph

Search for Another Location

Airport or City:

Trip Planner

Search our weather history database for the weather conditions in past years. The results will help you decide how hot, cold, wet, or windy it might be!

Date:

Astronomy

Mar. 14, 2014 Rise Set
Actual Time 7:20 AM CDT 7:10 PM CDT
Civil Twilight 6:50 AM CDT 7:40 PM CDT
Nautical Twilight 6:15 AM CDT 8:14 PM CDT
Astronomical Twilight 5:40 AM CDT 8:50 PM CDT
Moon 5:29 PM CDT (3/14) 6:05 AM CDT (3/14)
Length of Visible Light 12h 49m
Length of Day
11h 50m
Waxing Gibbous, 96% of the Moon is Illuminated
Mar 14
Waxing Gibbous
Mar 16
Full
Mar 23
Last Quarter
Mar 30
New
Apr 7
First Quarter

Hourly Weather History & Observations

Time (CDT) Temp. Windchill Dew Point Humidity Pressure Visibility Wind Dir Wind Speed Gust Speed Precip Events Conditions
12:53 AM 39.9 °F 36.7 °F 32.0 °F 73% 29.48 in 10.0 mi SSW 4.6 mph - N/A   Clear
1:53 AM 39.0 °F 36.8 °F 32.0 °F 76% 29.48 in 10.0 mi SSW 3.5 mph - N/A   Clear
2:53 AM 35.1 °F - 30.9 °F 85% 29.47 in 10.0 mi Calm Calm - N/A   Clear
3:53 AM 33.1 °F - 30.9 °F 92% 29.46 in 9.0 mi Calm Calm - N/A   Clear
4:53 AM 30.9 °F 27.5 °F 28.9 °F 92% 29.45 in 6.0 mi SW 3.5 mph - N/A   Clear
5:53 AM 30.9 °F - 28.9 °F 92% 29.47 in 6.0 mi Calm Calm - N/A   Clear
6:22 AM 30.0 °F - 28.0 °F 92% 29.43 in 1.8 mi Calm Calm - N/A   Clear
6:46 AM 28.9 °F - 28.0 °F 96% 29.44 in 3.0 mi Calm Calm - N/A   Scattered Clouds
6:53 AM 30.0 °F 26.5 °F 28.0 °F 92% 29.48 in 4.0 mi West 3.5 mph - N/A   Mostly Cloudy
7:46 AM 32.0 °F - 30.0 °F 92% 29.46 in 10.0 mi Calm Calm - N/A   Scattered Clouds
7:53 AM 33.1 °F 30.0 °F 30.0 °F 89% 29.50 in 10.0 mi WSW 3.5 mph - N/A   Partly Cloudy
8:13 AM 34.0 °F 31.0 °F 30.9 °F 89% 29.47 in 10.0 mi Variable 3.5 mph - N/A   Mostly Cloudy
8:53 AM 35.1 °F 31.0 °F 30.0 °F 82% 29.52 in 10.0 mi Variable 4.6 mph - N/A   Overcast
9:28 AM 35.1 °F 30.1 °F 28.9 °F 78% 29.49 in 10.0 mi Variable 5.8 mph - N/A   Overcast
9:53 AM 35.1 °F 29.3 °F 28.9 °F 78% 29.54 in 10.0 mi Variable 6.9 mph - N/A   Overcast
10:38 AM 35.1 °F 30.1 °F 28.0 °F 76% 29.50 in 10.0 mi Variable 5.8 mph - N/A   Overcast
10:53 AM 36.0 °F 30.3 °F 28.9 °F 76% 29.52 in 10.0 mi West 6.9 mph - N/A   Overcast
11:53 AM 37.0 °F 32.4 °F 28.9 °F 73% 29.54 in 10.0 mi Variable 5.8 mph - N/A   Overcast
12:53 PM 37.9 °F 32.1 °F 28.9 °F 70% 29.55 in 10.0 mi NW 8.1 mph - N/A   Overcast
1:53 PM 39.9 °F 34.5 °F 27.0 °F 60% 29.56 in 10.0 mi NNW 8.1 mph - N/A   Overcast
2:00 PM 41.0 °F 35.8 °F 27.0 °F 57% 29.53 in 10.0 mi WNW 8.1 mph 16.1 mph N/A   Overcast
2:53 PM 42.1 °F 36.1 °F 25.0 °F 51% 29.56 in 10.0 mi West 10.4 mph 19.6 mph N/A   Mostly Cloudy
3:53 PM 41.0 °F 35.2 °F 23.0 °F 49% 29.60 in 10.0 mi NW 9.2 mph 17.3 mph N/A   Overcast
4:53 PM 35.1 °F 27.4 °F 21.9 °F 59% 29.66 in 10.0 mi NW 10.4 mph 25.3 mph N/A   Overcast
5:34 PM 33.1 °F 26.9 °F 21.9 °F 64% 29.65 in 10.0 mi Variable 6.9 mph - N/A   Overcast
5:53 PM 32.0 °F 24.8 °F 21.0 °F 64% 29.71 in 10.0 mi WNW 8.1 mph - N/A   Overcast
6:53 PM 30.0 °F 21.7 °F 19.9 °F 66% 29.76 in 10.0 mi NW 9.2 mph - N/A   Overcast
7:53 PM 28.9 °F 21.9 °F 19.0 °F 67% 29.81 in 10.0 mi Variable 6.9 mph 23.0 mph N/A   Overcast
8:53 PM 28.0 °F 21.7 °F 18.0 °F 66% 29.85 in 10.0 mi Variable 5.8 mph - N/A   Overcast
9:53 PM 27.0 °F 18.0 °F 15.1 °F 61% 29.88 in 10.0 mi NNW 9.2 mph - N/A   Overcast
10:53 PM 25.0 °F 17.1 °F 16.0 °F 69% 29.91 in 9.0 mi Variable 6.9 mph - 0.00 in Snow Light Snow
11:51 PM 24.8 °F 19.1 °F 15.8 °F 69% 29.89 in 10.0 mi Variable 4.6 mph - 0.00 in Snow Light Snow
11:53 PM 25.0 °F 17.1 °F 15.1 °F 66% 29.94 in 10.0 mi Variable 6.9 mph - 0.00 in Snow Light Snow